,,PA_Meas_PMT16A,,PR_Meas_QMR101_102,,RH_Meas_QMH101,,SR_Meas_QMS101,,TA_Meas_QMH101,,GenWind,,GenWind,
time,status,PA,status,PR,status,RH,status,SR,status,TA,status,DirAvg,status,SpdAvg,
2016-11-19, 14:28:04,VALID,915.389,VALID,0,INVALID,123.278,VALID,145.046,VALID,20.0749,VALID,158,VALID,1.21836,
2016-11-19, 14:29:04,VALID,915.448,VALID,0,INVALID,123.309,VALID,147.302,VALID,20.1334,VALID,142,VALID,0.839063,
2016-11-19, 14:30:04,VALID,915.443,VALID,0,INVALID,123.362,VALID,148.269,VALID,20.1334,VALID,151,VALID,1.24492,
2016-11-19, 14:31:04,VALID,915.466,VALID,0,INVALID,123.37,VALID,148.699,VALID,20.1529,VALID,142,VALID,0.631641,
2016-11-19, 14:32:04,VALID,915.458,VALID,0,INVALID,123.324,VALID,149.236,VALID,20.2309,VALID,128,VALID,0.783594,
2016-11-19, 14:33:04,VALID,915.493,VALID,0,INVALID,123.332,VALID,150.203,VALID,20.3089,VALID,132,VALID,0.4,
2016-11-19, 14:34:04,VALID,915.545,VALID,0,INVALID,123.301,VALID,151.385,VALID,20.3869,VALID,150,VALID,0,
2016-11-19, 14:35:04,VALID,915.562,VALID,0,INVALID,123.233,VALID,153.319,VALID,20.4259,VALID,118,VALID,0,
2016-11-19, 14:36:04,VALID,915.585,VALID,0,INVALID,123.21,VALID,156.005,VALID,20.4634,VALID,137,VALID,0,
2016-11-19, 14:37:04,VALID,915.599,VALID,0,INVALID,123.179,VALID,159.443,VALID,20.6015,VALID,155,VALID,0,
2016-11-19, 14:38:04,VALID,915.641,VALID,0,INVALID,123.164,VALID,163.418,VALID,20.6795,VALID,103,VALID,0,
2016-11-19, 14:39:04,VALID,915.647,VALID,0,INVALID,123.164,VALID,167.823,VALID,20.7771,VALID,97,VALID,0,
2016-11-19, 14:40:04,VALID,915.676,VALID,0,INVALID,122.981,VALID,171.154,VALID,20.7755,VALID,84,VALID,0,
2016-11-19, 14:41:04,VALID,915.705,VALID,0,INVALID,122.821,VALID,175.881,VALID,20.834,VALID,69,VALID,0,
2016-11-19, 14:42:04,VALID,915.722,VALID,0,INVALID,122.485,VALID,181.468,VALID,20.8145,VALID,63,VALID,0,
2016-11-19, 14:43:04,VALID,915.701,VALID,0,INVALID,122.295,VALID,187.27,VALID,20.8145,VALID,78,VALID,0,
2016-11-19, 14:44:04,VALID,915.746,VALID,0,INVALID,122.081,VALID,193.824,VALID,20.7755,VALID,78,VALID,0,
2016-11-19, 14:45:04,VALID,915.736,VALID,0,INVALID,122.264,VALID,199.303,VALID,20.834,VALID,67,VALID,0,
2016-11-19, 14:46:04,VALID,915.693,VALID,0,INVALID,121.86,VALID,204.675,VALID,20.8145,VALID,67,VALID,0,
2016-11-19, 14:47:04,VALID,915.705,VALID,0,INVALID,121.891,VALID,207.147,VALID,20.8535,VALID,82,VALID,0,
2016-11-19, 14:48:04,VALID,915.699,VALID,0,INVALID,122.28,VALID,213.056,VALID,20.9316,VALID,113,VALID,0,
2016-11-19, 14:49:04,VALID,915.703,VALID,0,INVALID,121.914,VALID,215.957,VALID,20.9511,VALID,147,VALID,0,
2016-11-19, 14:50:04,VALID,915.693,VALID,0,INVALID,121.86,VALID,223.155,VALID,21.0486,VALID,135,VALID,0,
2016-11-19, 14:51:04,VALID,915.69,VALID,0,INVALID,121.914,VALID,230.139,VALID,21.1657,VALID,150,VALID,0.422266,
2016-11-19, 14:52:04,VALID,915.71,VALID,0,INVALID,122.112,VALID,239.379,VALID,21.2843,VALID,151,VALID,0,
2016-11-19, 14:53:04,VALID,915.673,VALID,0,INVALID,121.464,VALID,290.199,VALID,21.3022,VALID,148,VALID,0.580078,
2016-11-19, 14:54:04,VALID,915.699,VALID,0,INVALID,121.54,VALID,371.961,VALID,21.4388,VALID,165,VALID,0,
2016-11-19, 14:55:04,VALID,915.686,VALID,0,INVALID,120.252,VALID,479.832,VALID,21.4973,VALID,144,VALID,1.77891,
2016-11-19, 14:56:04,VALID,915.699,VALID,0,INVALID,119.726,VALID,450.931,VALID,21.5754,VALID,157,VALID,1.41641,
2016-11-19, 14:57:04,VALID,915.697,VALID,0,INVALID,118.773,VALID,363.259,VALID,21.6924,VALID,164,VALID,1.26016,
2016-11-19, 14:58:04,VALID,915.673,VALID,0,INVALID,113.94,VALID,508.841,VALID,21.8485,VALID,148,VALID,1.37305,
2016-11-19, 14:59:04,VALID,915.72,VALID,0,VALID,92.3272,VALID,505.725,VALID,21.9461,VALID,161,VALID,1.57852,
2016-11-19, 15:00:04,VALID,915.679,VALID,0,VALID,93.6232,VALID,496.593,VALID,22.0632,VALID,148,VALID,1.35156,
2016-11-19, 15:01:04,VALID,915.683,VALID,0,VALID,89.7047,VALID,285.793,VALID,22.1998,VALID,169,VALID,0,
2016-11-19, 15:02:04,VALID,915.663,VALID,0,VALID,89.5142,VALID,279.884,VALID,22.3347,VALID,145,VALID,0,
2016-11-19, 15:03:04,VALID,915.676,VALID,0,VALID,87.8446,VALID,270.967,VALID,22.4518,VALID,172,VALID,0,
2016-11-19, 15:04:04,VALID,915.644,VALID,0,VALID,86.7316,VALID,243.999,VALID,22.6274,VALID,187,VALID,0,
2016-11-19, 15:05:04,VALID,915.677,VALID,0,VALID,85.6948,VALID,204.998,VALID,22.8031,VALID,154,VALID,0,
2016-11-19, 15:06:04,VALID,915.671,VALID,0,VALID,83.8195,VALID,195.543,VALID,22.7836,VALID,135,VALID,0,
2016-11-19, 15:07:04,VALID,915.666,VALID,0,VALID,84.3836,VALID,198.874,VALID,22.725,VALID,138,VALID,0,
2016-11-19, 15:08:04,VALID,915.677,VALID,0,VALID,83.2325,VALID,209.188,VALID,22.5494,VALID,143,VALID,0,
2016-11-19, 15:09:04,VALID,915.687,VALID,0,VALID,85.6262,VALID,216.494,VALID,22.4696,VALID,148,VALID,0,
2016-11-19, 15:10:04,VALID,915.702,VALID,0,VALID,84.6885,VALID,218.858,VALID,22.3933,VALID,144,VALID,0,
2016-11-19, 15:11:04,VALID,915.709,VALID,0,VALID,86.5029,VALID,224.552,VALID,22.3933,VALID,152,VALID,0,
2016-11-19, 15:12:04,VALID,915.714,VALID,0,VALID,85.8549,VALID,223.37,VALID,22.4323,VALID,152,VALID,0,
2016-11-19, 15:13:04,VALID,915.704,VALID,0,VALID,83.9948,VALID,218.75,VALID,22.5299,VALID,152,VALID,0,
2016-11-19, 15:14:04,VALID,915.694,VALID,0,VALID,83.3239,VALID,213.593,VALID,22.6096,VALID,152,VALID,0,
2016-11-19, 15:15:04,VALID,915.674,VALID,0,VALID,83.1638,VALID,210.692,VALID,22.686,VALID,152,VALID,0,
2016-11-19, 15:16:04,VALID,915.717,VALID,0,VALID,81.8907,VALID,209.725,VALID,22.8226,VALID,152,VALID,0,
2016-11-19, 15:17:04,VALID,915.701,VALID,0,VALID,81.5782,VALID,212.196,VALID,22.961,VALID,152,VALID,0,
2016-11-19, 15:18:04,VALID,915.7,VALID,0,VALID,81.258,VALID,218.535,VALID,23.0763,VALID,152,VALID,0,
2016-11-19, 15:19:04,VALID,915.691,VALID,0,VALID,81.967,VALID,219.717,VALID,23.2325,VALID,152,VALID,0,
2016-11-19, 15:20:04,VALID,915.696,VALID,0,VALID,83.9033,VALID,225.519,VALID,23.4082,VALID,103,VALID,0,
2016-11-19, 15:21:04,VALID,915.726,VALID,0,VALID,85.8397,VALID,235.511,VALID,23.3887,VALID,103,VALID,0,
2016-11-19, 15:22:04,VALID,915.708,VALID,0,VALID,84.071,VALID,272.363,VALID,23.252,VALID,103,VALID,0,
2016-11-19, 15:23:04,VALID,915.739,VALID,0,VALID,87.3796,VALID,371.209,VALID,23.2112,VALID,103,VALID,0,
2016-11-19, 15:24:04,VALID,915.759,VALID,0,VALID,83.5374,VALID,256.892,VALID,23.213,VALID,103,VALID,0,
2016-11-19, 15:25:04,VALID,915.77,VALID,0,VALID,83.1181,VALID,262.801,VALID,23.1722,VALID,103,VALID,0,
2016-11-19, 15:26:04,VALID,915.796,VALID,0,VALID,83.5374,VALID,270.215,VALID,23.2698,VALID,103,VALID,0,
2016-11-19, 15:27:04,VALID,915.791,VALID,0,VALID,84.1778,VALID,271.934,VALID,23.465,VALID,103,VALID,0,
2016-11-19, 15:28:04,VALID,915.805,VALID,0,VALID,83.5145,VALID,275.801,VALID,23.6602,VALID,103,VALID,0,
2016-11-19, 15:29:04,VALID,915.802,VALID,0,VALID,80.671,VALID,294.819,VALID,23.7968,VALID,103,VALID,0,
2016-11-19, 15:30:04,VALID,915.814,VALID,0,VALID,80.8463,VALID,282.248,VALID,23.7968,VALID,103,VALID,0,
2016-11-19, 15:31:04,VALID,915.849,VALID,0,VALID,81.5629,VALID,268.71,VALID,23.7187,VALID,103,VALID,0,
2016-11-19, 15:32:04,VALID,915.833,VALID,0,VALID,83.1715,VALID,348.002,VALID,23.6016,VALID,133,VALID,0,
2016-11-19, 15:33:04,VALID,915.838,VALID,0,VALID,84.1244,VALID,533.23,VALID,23.4845,VALID,203,VALID,0,
2016-11-19, 15:34:04,VALID,915.854,VALID,0,VALID,85.2908,VALID,400.97,VALID,23.4454,VALID,207,VALID,0,
2016-11-19, 15:35:04,VALID,915.881,VALID,0,VALID,86.7773,VALID,261.727,VALID,23.3674,VALID,282,VALID,0,
2016-11-19, 15:36:04,VALID,915.891,VALID,0,VALID,85.5805,VALID,259.685,VALID,23.2112,VALID,284,VALID,0,
2016-11-19, 15:37:04,VALID,915.903,VALID,0,VALID,86.5334,VALID,259.255,VALID,23.0763,VALID,285,VALID,0,
2016-11-19, 15:38:04,VALID,915.906,VALID,0,VALID,86.5258,VALID,259.148,VALID,22.9202,VALID,282,VALID,0,
2016-11-19, 15:39:04,VALID,915.911,VALID,0,VALID,87.776,VALID,262.156,VALID,22.7641,VALID,285,VALID,0,
2016-11-19, 15:40:04,VALID,915.915,VALID,0,INVALID,111.744,VALID,268.066,VALID,22.7623,VALID,359,VALID,1.12852,
2016-11-19, 15:41:04,VALID,915.935,VALID,0,INVALID,115.197,VALID,273.653,VALID,22.8404,VALID,359,VALID,0.480859,
2016-11-19, 15:42:04,VALID,915.931,VALID,0,INVALID,116.272,VALID,293.852,VALID,22.9575,VALID,11,VALID,0,
2016-11-19, 15:43:04,VALID,915.918,VALID,0,INVALID,115.701,VALID,342.737,VALID,23.1331,VALID,1,VALID,0,
2016-11-19, 15:44:04,VALID,915.887,VALID,0,INVALID,109.815,VALID,429.872,VALID,23.3106,VALID,323,VALID,0,
2016-11-19, 15:45:04,VALID,915.895,VALID,0,VALID,94.7209,VALID,652.812,VALID,23.465,VALID,323,VALID,0,
2016-11-19, 15:46:04,VALID,915.918,VALID,0,VALID,88.828,VALID,327.158,VALID,23.6211,VALID,304,VALID,0,
2016-11-19, 15:47:04,VALID,915.903,VALID,0,VALID,89.6895,VALID,271.611,VALID,23.6406,VALID,283,VALID,0,
2016-11-19, 15:48:04,VALID,915.929,VALID,0,VALID,90.429,VALID,293.852,VALID,23.6602,VALID,303,VALID,0,
2016-11-19, 15:49:04,VALID,915.954,VALID,0,VALID,88.0047,VALID,463.179,VALID,23.6406,VALID,284,VALID,0,
2016-11-19, 15:50:04,VALID,915.97,VALID,0,VALID,89.2778,VALID,539.784,VALID,23.6016,VALID,255,VALID,0,
2016-11-19, 15:51:04,VALID,915.981,VALID,0,VALID,86.198,VALID,480.047,VALID,23.6211,VALID,254,VALID,0,
2016-11-19, 15:52:04,VALID,915.979,VALID,0,VALID,87.6007,VALID,359.82,VALID,23.6016,VALID,252,VALID,0,
2016-11-19, 15:53:04,VALID,915.992,VALID,0,VALID,88.7442,VALID,364.333,VALID,23.4845,VALID,253,VALID,0,
2016-11-19, 15:54:04,VALID,915.965,VALID,0,VALID,97.1681,VALID,347.572,VALID,23.4827,VALID,253,VALID,0,
2016-11-19, 15:55:04,VALID,915.975,VALID,0,VALID,93.951,VALID,673.441,VALID,23.6584,VALID,280,VALID,0,
2016-11-19, 15:56:04,VALID,916,VALID,0,VALID,88.5612,VALID,632.828,VALID,24.0115,VALID,316,VALID,0,
2016-11-19, 15:57:04,VALID,915.96,VALID,0,VALID,83.3544,VALID,445.236,VALID,24.2654,VALID,259,VALID,0,
2016-11-19, 15:58:04,VALID,915.969,VALID,0,VALID,81.7306,VALID,374.862,VALID,24.244,VALID,260,VALID,0,
2016-11-19, 15:59:04,VALID,915.977,VALID,0,VALID,79.6876,VALID,390.119,VALID,24.2068,VALID,298,VALID,0,
2016-11-19, 16:00:04,VALID,915.962,VALID,0,VALID,78.6127,VALID,595.009,VALID,24.0878,VALID,292,VALID,0,
2016-11-19, 16:01:04,VALID,915.947,VALID,0,VALID,75.8911,VALID,712.12,VALID,24.0488,VALID,267,VALID,0,
2016-11-19, 16:02:04,VALID,915.959,VALID,0,VALID,76.8669,VALID,313.728,VALID,23.9512,VALID,288,VALID,0.373047,
2016-11-19, 16:03:04,VALID,915.966,VALID,0,VALID,77.2176,VALID,365.515,VALID,23.7364,VALID,293,VALID,0,
2016-11-19, 16:04:04,VALID,915.95,VALID,0,VALID,79.2225,VALID,480.584,VALID,23.6584,VALID,265,VALID,0,
2016-11-19, 16:05:04,VALID,915.941,VALID,0,VALID,78.2544,VALID,488.75,VALID,23.6584,VALID,276,VALID,0,
2016-11-19, 16:06:04,VALID,915.949,VALID,0,VALID,79.1692,VALID,433.525,VALID,23.637,VALID,269,VALID,0,
2016-11-19, 16:07:04,VALID,915.93,VALID,0,VALID,77.4005,VALID,575.025,VALID,23.7169,VALID,285,VALID,0,
2016-11-19, 16:08:04,VALID,915.931,VALID,0,VALID,79.4207,VALID,398.284,VALID,23.7151,VALID,281,VALID,0,
2016-11-19, 16:09:04,VALID,915.93,VALID,0,VALID,81.4105,VALID,478.221,VALID,23.8908,VALID,283,VALID,0,
2016-11-19, 16:10:04,VALID,915.943,VALID,0,VALID,78.3535,VALID,693.64,VALID,24.125,VALID,14,VALID,0,
2016-11-19, 16:11:04,VALID,915.937,VALID,0,VALID,75.7996,VALID,629.175,VALID,24.3806,VALID,259,VALID,0,
2016-11-19, 16:12:04,VALID,915.965,VALID,0,VALID,76.6916,VALID,652.275,VALID,24.4374,VALID,277,VALID,0,
2016-11-19, 16:13:04,VALID,915.976,VALID,0,VALID,76.2342,VALID,687.731,VALID,24.654,VALID,326,VALID,0,
2016-11-19, 16:14:04,VALID,915.97,VALID,0,VALID,75.7996,VALID,616.497,VALID,24.8883,VALID,330,VALID,0,
2016-11-19, 16:15:04,VALID,915.992,VALID,0,VALID,74.8391,VALID,691.384,VALID,25.0055,VALID,256,VALID,0,
2016-11-19, 16:16:04,VALID,915.999,VALID,0,VALID,74.3359,VALID,709.971,VALID,25.0836,VALID,244,VALID,0,
2016-11-19, 16:17:04,VALID,916.026,VALID,0,VALID,73.5583,VALID,501.535,VALID,25.1402,VALID,293,VALID,0,
2016-11-19, 16:18:04,VALID,916.028,VALID,0,VALID,73.5355,VALID,352.514,VALID,25.0231,VALID,287,VALID,0,
2016-11-19, 16:19:04,VALID,916.03,VALID,0,VALID,72.6816,VALID,514.965,VALID,24.984,VALID,313,VALID,0,
2016-11-19, 16:20:04,VALID,916.021,VALID,0,VALID,73.9014,VALID,629.82,VALID,25.1422,VALID,310,VALID,0,
2016-11-19, 16:21:04,VALID,916.031,VALID,0,VALID,73.444,VALID,711.26,VALID,25.3765,VALID,268,VALID,0,
2016-11-19, 16:22:04,VALID,916.023,VALID,0,VALID,74.8543,VALID,713.732,VALID,25.5503,VALID,333,VALID,0,
2016-11-19, 16:23:04,VALID,916.028,VALID,0,VALID,73.8861,VALID,710.616,VALID,25.7651,VALID,345,VALID,0,
2016-11-19, 16:24:04,VALID,916.054,VALID,0,VALID,71.5153,VALID,667.102,VALID,25.8823,VALID,252,VALID,0,
2016-11-19, 16:25:04,VALID,916.049,VALID,0,VALID,73.1543,VALID,725.335,VALID,25.8433,VALID,254,VALID,0,
2016-11-19, 16:26:04,VALID,916.033,VALID,0,VALID,70.8901,VALID,685.152,VALID,25.8218,VALID,299,VALID,0,
2016-11-19, 16:27:04,VALID,916.064,VALID,0,VALID,71.378,VALID,462.856,VALID,25.8237,VALID,286,VALID,0,
2016-11-19, 16:28:04,VALID,916.028,VALID,0,VALID,73.8709,VALID,476.931,VALID,25.8042,VALID,322,VALID,0,
2016-11-19, 16:29:04,VALID,916.029,VALID,0,VALID,69.7619,VALID,537.635,VALID,25.9389,VALID,271,VALID,0,
2016-11-19, 16:30:04,VALID,915.998,VALID,0,VALID,70.9588,VALID,493.8,VALID,25.8804,VALID,272,VALID,0,
2016-11-19, 16:31:04,VALID,915.976,VALID,0,VALID,72.4834,VALID,428.905,VALID,25.9019,VALID,261,VALID,0,
2016-11-19, 16:32:04,VALID,915.964,VALID,0,VALID,72.7198,VALID,204.461,VALID,25.9214,VALID,333,VALID,0.417188,
2016-11-19, 16:33:04,VALID,915.96,VALID,0,VALID,74.679,VALID,192.427,VALID,25.7847,VALID,11,VALID,0.00625,
2016-11-19, 16:34:04,VALID,915.987,VALID,0,VALID,72.7579,VALID,233.792,VALID,25.6655,VALID,313,VALID,1.24492,
2016-11-19, 16:35:04,VALID,915.921,VALID,0,VALID,71.2484,VALID,208.114,VALID,25.5074,VALID,19,VALID,0.669922,
2016-11-19, 16:36:04,VALID,915.918,VALID,0,VALID,73.1086,VALID,191.138,VALID,25.275,VALID,23,VALID,0.518359,
2016-11-19, 16:37:04,VALID,915.927,VALID,0,VALID,75.5099,VALID,162.344,VALID,25.1383,VALID,348,VALID,1.07031,
2016-11-19, 16:38:04,VALID,915.927,VALID,0,VALID,74.4655,VALID,151.17,VALID,25.0778,INVALID,360,VALID,0.00703125,
2016-11-19, 16:39:04,VALID,915.905,VALID,0,VALID,75.0602,VALID,136.128,VALID,25.1755,VALID,18,VALID,0,
2016-11-19, 16:40:04,VALID,915.864,VALID,0,VALID,73.9395,VALID,121.516,VALID,25.3512,VALID,5,VALID,0.119922,
2016-11-19, 16:41:04,VALID,915.857,VALID,0,VALID,73.4897,VALID,113.565,VALID,25.4312,VALID,31,VALID,0,
2016-11-19, 16:42:04,VALID,915.86,VALID,0,VALID,74.7476,VALID,102.391,VALID,25.607,VALID,349,VALID,0,
2016-11-19, 16:43:04,VALID,915.842,VALID,0,VALID,75.0297,VALID,99.4905,VALID,25.6265,VALID,261,VALID,0,
2016-11-19, 16:44:04,VALID,915.88,VALID,0,VALID,72.8341,VALID,91.8622,VALID,25.7827,VALID,323,VALID,0,
2016-11-19, 16:45:04,VALID,915.837,VALID,0,VALID,72.3843,VALID,88.5315,VALID,25.9975,VALID,15,VALID,0,
2016-11-19, 16:46:04,VALID,915.866,VALID,0,VALID,73.5507,VALID,87.4571,VALID,26.0952,VALID,20,VALID,0,
2016-11-19, 16:47:04,VALID,915.88,VALID,0,VALID,70.5471,VALID,86.0604,VALID,26.1342,VALID,308,VALID,0,
2016-11-19, 16:48:04,VALID,915.899,VALID,0,VALID,72.1937,VALID,86.1678,VALID,25.8804,VALID,314,VALID,0,
2016-11-19, 16:49:04,VALID,915.89,VALID,0,VALID,73.6727,VALID,95.0854,VALID,25.7612,VALID,2,VALID,0.438672,
2016-11-19, 16:50:04,VALID,915.898,VALID,0,VALID,69.9677,VALID,115.714,VALID,25.7827,VALID,333,VALID,0,
2016-11-19, 16:51:04,VALID,915.877,VALID,0,VALID,71.683,VALID,167.823,VALID,25.6655,VALID,316,VALID,0,
2016-11-19, 16:52:04,VALID,915.867,VALID,0,VALID,72.4072,VALID,258.718,VALID,25.607,VALID,316,VALID,0,
2016-11-19, 16:53:04,VALID,915.864,VALID,0,VALID,72.6435,VALID,381.738,VALID,25.5484,VALID,270,VALID,0.0742188,
2016-11-19, 16:54:04,VALID,915.848,VALID,0,VALID,73.0171,VALID,513.354,VALID,25.5269,VALID,313,VALID,0.175,
2016-11-19, 16:55:04,VALID,915.849,VALID,0,VALID,71.9269,VALID,621.977,VALID,25.5855,VALID,263,VALID,0,
2016-11-19, 16:56:04,VALID,915.834,VALID,0,VALID,72.087,VALID,689.665,VALID,25.5464,VALID,268,VALID,0,
2016-11-19, 16:57:04,VALID,915.82,VALID,0,VALID,74.1453,VALID,722.542,VALID,25.4898,VALID,252,VALID,0,
2016-11-19, 16:58:04,VALID,915.837,VALID,0,VALID,72.6054,VALID,738.765,VALID,25.4879,VALID,256,VALID,0,
2016-11-19, 16:59:04,VALID,915.839,VALID,0,VALID,74.1682,VALID,741.989,VALID,25.5269,VALID,325,VALID,0,
2016-11-19, 17:00:04,VALID,915.809,VALID,0,VALID,75.2202,VALID,749.08,VALID,25.6831,VALID,335,VALID,0,
2016-11-19, 17:01:04,VALID,915.789,VALID,0,VALID,70.7758,VALID,761.865,VALID,25.8589,VALID,31,VALID,1.45,
2016-11-19, 17:02:04,VALID,915.806,VALID,0,VALID,72.2242,VALID,744.567,VALID,25.8589,VALID,39,VALID,1.2168,
2016-11-19, 17:03:04,VALID,915.826,VALID,0,VALID,72.4682,VALID,774.758,VALID,25.937,VALID,35,VALID,0.0632813,
2016-11-19, 17:04:04,VALID,915.788,VALID,0,VALID,73.3449,VALID,756.815,VALID,26.0131,VALID,48,VALID,0.106641,
2016-11-19, 17:05:04,VALID,915.802,VALID,0,VALID,72.087,VALID,794.742,VALID,26.4057,VALID,12,VALID,0,
2016-11-19, 17:06:04,VALID,915.79,VALID,0,VALID,68.5879,VALID,728.773,VALID,26.6791,VALID,8,VALID,0,
2016-11-19, 17:07:04,VALID,915.794,VALID,0,VALID,70.852,VALID,762.94,VALID,26.7573,VALID,50,VALID,0,
2016-11-19, 17:08:04,VALID,915.806,VALID,0,VALID,70.0287,VALID,798.825,VALID,26.9701,VALID,34,VALID,0,
2016-11-19, 17:09:04,VALID,915.809,VALID,0,VALID,68.3668,VALID,793.238,VALID,26.9896,VALID,264,VALID,0,
2016-11-19, 17:10:04,VALID,915.819,VALID,0,VALID,66.9488,VALID,791.734,VALID,26.8138,VALID,278,VALID,0.232031,
2016-11-19, 17:11:04,VALID,915.807,VALID,0,VALID,68.8242,VALID,737.906,VALID,26.5599,VALID,297,VALID,0,
2016-11-19, 17:12:04,VALID,915.83,VALID,0,VALID,69.2892,VALID,559.983,VALID,26.5404,VALID,273,VALID,0.511328,
2016-11-19, 17:13:04,VALID,915.844,VALID,0,VALID,68.2982,VALID,803.015,VALID,26.3666,VALID,254,VALID,0.0203125,
2016-11-19, 17:14:04,VALID,915.828,VALID,0,VALID,70.8901,VALID,750.476,VALID,26.2885,VALID,285,VALID,0,
2016-11-19, 17:15:04,VALID,915.8,VALID,0,VALID,67.0327,VALID,589.1,VALID,26.4838,VALID,260,VALID,0,
2016-11-19, 17:16:04,VALID,915.844,VALID,0,VALID,67.5358,VALID,888.323,VALID,26.4232,VALID,298,VALID,0,
2016-11-19, 17:17:04,VALID,915.799,VALID,0,VALID,67.8179,VALID,299.868,VALID,26.3451,VALID,307,VALID,0,
2016-11-19, 17:18:04,VALID,915.782,VALID,0,VALID,69.9906,VALID,492.94,VALID,26.4057,VALID,247,VALID,0.0128906,
2016-11-19, 17:19:04,VALID,915.762,VALID,0,VALID,67.1318,VALID,911.853,VALID,26.269,VALID,234,VALID,0,
2016-11-19, 17:20:04,VALID,915.784,VALID,0,VALID,68.9995,VALID,602.315,VALID,26.4838,VALID,292,VALID,0,
2016-11-19, 17:21:04,VALID,915.74,VALID,0,VALID,66.4609,VALID,758.749,VALID,26.7377,VALID,302,VALID,0,
2016-11-19, 17:22:04,VALID,915.754,VALID,0,VALID,67.2538,VALID,686.979,VALID,26.8549,VALID,330,VALID,0,
2016-11-19, 17:23:04,VALID,915.724,VALID,0,VALID,68.3363,VALID,894.448,VALID,26.9526,VALID,318,VALID,0,
2016-11-19, 17:24:04,VALID,915.742,VALID,0,VALID,67.2919,VALID,958.375,VALID,27.1284,VALID,14,VALID,0,
2016-11-19, 17:25:04,VALID,915.722,VALID,0,VALID,65.9883,VALID,643.68,VALID,27.3412,VALID,347,VALID,0,
2016-11-19, 17:26:04,VALID,915.726,VALID,0,VALID,67.6349,VALID,1015.64,VALID,27.6754,VALID,291,VALID,0,
2016-11-19, 17:27:04,VALID,915.728,VALID,0,VALID,65.2641,VALID,817.52,VALID,27.8904,VALID,3,VALID,0.298047,
2016-11-19, 17:28:04,VALID,915.685,VALID,0,VALID,64.7228,VALID,884.026,VALID,28.0076,VALID,11,VALID,0.34375,
2016-11-19, 17:29:04,VALID,915.684,VALID,0,VALID,61.7192,VALID,892.621,VALID,27.771,VALID,44,VALID,0.0925781,
2016-11-19, 17:30:04,VALID,915.7,VALID,0,VALID,64.8372,VALID,907.985,VALID,27.734,VALID,27,VALID,0,
2016-11-19, 17:31:04,VALID,915.696,VALID,0,VALID,65.973,VALID,473.815,VALID,27.8687,VALID,15,VALID,0,
2016-11-19, 17:32:04,VALID,915.678,VALID,0,VALID,62.9542,VALID,367.986,VALID,27.9273,VALID,13,VALID,0.00742187,
2016-11-19, 17:33:04,VALID,915.646,VALID,0,VALID,62.7102,VALID,440.724,VALID,27.7145,VALID,262,VALID,0.958984,
2016-11-19, 17:34:04,VALID,915.665,VALID,0,VALID,64.4636,VALID,493.155,VALID,27.3042,VALID,271,VALID,0,
2016-11-19, 17:35:04,VALID,915.683,VALID,0,VALID,67.9323,VALID,581.149,VALID,26.9917,VALID,259,VALID,0.000390625,
2016-11-19, 17:36:04,VALID,915.68,VALID,0,VALID,66.7125,VALID,667.747,VALID,26.6987,VALID,248,VALID,0.378906,
2016-11-19, 17:37:04,VALID,915.663,VALID,0,VALID,69.7314,VALID,450.823,VALID,26.4838,VALID,258,VALID,0,
2016-11-19, 17:38:04,VALID,915.662,VALID,0,VALID,67.5511,VALID,457.377,VALID,26.4447,VALID,288,VALID,1.04883,
2016-11-19, 17:39:04,VALID,915.662,VALID,0,VALID,68.5803,VALID,406.45,VALID,26.1693,VALID,249,VALID,0,
2016-11-19, 17:40:04,VALID,915.678,VALID,0,VALID,70.4861,VALID,407.309,VALID,25.9936,VALID,254,VALID,0,
2016-11-19, 17:41:04,VALID,915.676,VALID,0,VALID,71.3628,VALID,420.095,VALID,26.0932,VALID,268,VALID,0,
2016-11-19, 17:42:04,VALID,915.671,VALID,0,VALID,71.3247,VALID,497.13,VALID,26.1908,VALID,10,VALID,0,
2016-11-19, 17:43:04,VALID,915.645,VALID,0,VALID,71.8278,VALID,474.675,VALID,26.308,VALID,12,VALID,0,
2016-11-19, 17:44:04,VALID,915.643,VALID,0,VALID,71.0274,VALID,513.676,VALID,26.4232,VALID,353,VALID,0,
2016-11-19, 17:45:04,VALID,915.61,VALID,0,VALID,71.1189,VALID,431.591,VALID,26.4447,VALID,29,VALID,0,
2016-11-19, 17:46:04,VALID,915.604,VALID,0,VALID,71.9346,VALID,482.518,VALID,26.6401,VALID,26,VALID,0.516797,
2016-11-19, 17:47:04,VALID,915.613,VALID,0,VALID,72.2852,VALID,489.717,VALID,26.7963,VALID,48,VALID,0,
2016-11-19, 17:48:04,VALID,915.608,VALID,0,VALID,71.9879,VALID,473.386,VALID,27.1068,VALID,52,VALID,0,
2016-11-19, 17:49:04,VALID,915.616,VALID,0,VALID,69.6552,VALID,575.67,VALID,27.4194,VALID,2,VALID,0,
2016-11-19, 17:50:04,VALID,915.594,VALID,0,VALID,68.4811,VALID,515.288,VALID,27.5191,VALID,42,VALID,0,
2016-11-19, 17:51:04,VALID,915.597,VALID,0,VALID,68.0161,VALID,527.751,VALID,27.5366,VALID,346,VALID,0,
2016-11-19, 17:52:04,VALID,915.577,VALID,0,VALID,69.2359,VALID,539.999,VALID,27.6754,VALID,33,VALID,0.340234,
2016-11-19, 17:53:04,VALID,915.606,VALID,0,VALID,65.7901,VALID,593.183,VALID,27.6929,VALID,323,VALID,0.0683594,
2016-11-19, 17:54:04,VALID,915.559,VALID,0,VALID,68.4278,VALID,336.828,VALID,27.48,VALID,15,VALID,0.0199219,
2016-11-19, 17:55:04,VALID,915.52,VALID,0,VALID,69.8991,VALID,536.239,VALID,27.1479,VALID,18,VALID,2.13477,
2016-11-19, 17:56:04,VALID,915.538,VALID,0,VALID,68.9309,VALID,530.974,VALID,26.9135,VALID,9,VALID,0.826953,
2016-11-19, 17:57:04,VALID,915.514,VALID,0,VALID,71.4238,VALID,566.322,VALID,26.8549,VALID,10,VALID,0,
2016-11-19, 17:58:04,VALID,915.562,VALID,0,VALID,73.505,VALID,539.247,VALID,27.0287,VALID,344,VALID,1.3793,
2016-11-19, 17:59:04,VALID,915.534,VALID,0,VALID,71.5534,VALID,562.669,VALID,26.9526,VALID,41,VALID,0.00273437,
2016-11-19, 18:00:04,VALID,915.534,VALID,0,VALID,70.9206,VALID,508.304,VALID,27.0503,VALID,22,VALID,0,
2016-11-19, 18:01:04,VALID,915.511,VALID,0,VALID,70.3641,VALID,647.333,VALID,27.187,VALID,4,VALID,0,
2016-11-19, 18:02:04,VALID,915.505,VALID,0,VALID,68.2067,VALID,627.994,VALID,27.3042,VALID,343,VALID,0,
2016-11-19, 18:03:04,VALID,915.493,VALID,0,VALID,68.0847,VALID,663.986,VALID,27.4996,VALID,354,VALID,0,
2016-11-19, 18:04:04,VALID,915.47,VALID,0,VALID,66.7735,VALID,700.516,VALID,27.6364,VALID,196,VALID,0,
2016-11-19, 18:05:04,VALID,915.527,VALID,0,VALID,67.3757,VALID,752.088,VALID,27.7927,VALID,237,VALID,0,
2016-11-19, 18:06:04,VALID,915.484,VALID,0,VALID,67.3148,VALID,628.208,VALID,27.695,VALID,291,VALID,0,
2016-11-19, 18:07:04,VALID,915.498,VALID,0,VALID,67.2309,VALID,686.656,VALID,27.7145,VALID,295,VALID,0,
2016-11-19, 18:08:04,VALID,915.511,VALID,0,VALID,65.7748,VALID,619.398,VALID,27.8296,VALID,207,VALID,0,
2016-11-19, 18:09:04,VALID,915.509,VALID,0,VALID,62.0851,VALID,630.25,VALID,28.0271,VALID,136,VALID,0,
2016-11-19, 18:10:04,VALID,915.498,VALID,0,VALID,63.038,VALID,350.688,VALID,28.1835,VALID,71,VALID,0,
2016-11-19, 18:11:04,VALID,915.485,VALID,0,VALID,59.5694,VALID,849.645,VALID,28.2225,VALID,323,VALID,0,